Flag for U.S.A. Weather past 2 weeks in Menominee, Michigan, U.S.A.

Now
50 °F

Overcast.


Feels Like: 48 °F
Forecast: 39 / 60 °F
Wind: 5 mph from Southeast

Location: Menominee Weather Reporting Station

Current Time: May 6, 2015 at 8:40:06 AM

Latest Report: May 6, 2015 at 8:15 AM


Visibility: 10 mi

Pressure: 30.23 "Hg

Humidity: 67%

Dew point: 39 °F

Location of MenomineeLocation

Historic Weather in Menominee — Graph

°F

Menominee temperature yesterday

Maximum temperature yesterday: 63 °F (at 3:35 PM)
Minimum temperature yesterday: 41 °F (at 3:55 AM)
Average temperature yesterday: 52 °F

Past Weeks' High & Low Weather Summary

 TemperatureHumidityPressure
High81 °F (May 3, 3:35 PM)94% (May 4, 2:15 AM)30.35 "Hg (May 4, 2:15 AM)
Low27 °F (Apr 24, 3:35 AM)23% (Apr 23, 5:55 PM)29.36 "Hg (Apr 21, 7:15 AM)
Average47 °F58%29.98 "Hg
* Reported Apr 21 7:15 AM — May 6 7:35 AM, Menominee, Weather by CustomWeather, © 2015

Note: Actual official high and low records may vary slightly from our data, if they occured in-between our weather recording intervals... More about our weather records

Advertising

Menominee weather history for previous 24 hours

 ConditionsComfort  
Time TempWeatherWind HumidityBarometerVisibility
7:35 AM
Wed, May 6
48 °FOvercast.3 mph71%30.23 "Hg10 mi
7:15 AM48 °FOvercast.5 mph76%30.22 "Hg10 mi
6:55 AM48 °FOvercast.6 mph71%30.22 "Hg10 mi
6:35 AM48 °FOvercast.No wind71%30.23 "Hg10 mi
6:15 AM48 °FMostly cloudy.3 mph66%30.23 "Hg10 mi
5:55 AM48 °FOvercast.No wind66%30.22 "Hg10 mi
5:35 AM48 °FMore clouds than sun.No wind66%30.22 "Hg10 mi
5:15 AM48 °FOvercast.No wind62%30.22 "Hg10 mi
4:55 AM46 °FOvercast.No wind71%30.21 "Hg10 mi
4:35 AM46 °FPassing clouds.No wind71%30.21 "Hg10 mi
4:15 AM48 °FPassing clouds.No wind62%30.22 "Hg10 mi
3:55 AM48 °FOvercast.No wind58%30.22 "Hg10 mi
3:35 AM48 °FOvercast.No wind58%30.21 "Hg10 mi
3:15 AM46 °FPassing clouds.3 mph57%30.21 "Hg10 mi
2:55 AM48 °FClear.5 mph58%30.22 "Hg10 mi
2:35 AM48 °FClear.3 mph62%30.23 "Hg10 mi
2:15 AM48 °FClear.5 mph66%30.23 "Hg10 mi
1:55 AM48 °FClear.3 mph66%30.24 "Hg10 mi
1:35 AM46 °FPassing clouds.No wind71%30.24 "Hg10 mi
1:15 AM46 °FPassing clouds.No wind71%30.25 "Hg10 mi
12:55 AM46 °FClear.No wind76%30.25 "Hg10 mi
12:35 AM48 °FClear.No wind62%30.25 "Hg10 mi
12:15 AM48 °FClear.No wind71%30.25 "Hg10 mi
11:55 PM
Tue, May 5
48 °FClear.No wind58%30.25 "Hg10 mi
11:35 PM48 °FClear.No wind58%30.26 "Hg10 mi
11:15 PM48 °FClear.No wind58%30.26 "Hg10 mi
10:55 PM48 °FClear.No wind58%30.26 "Hg10 mi
10:15 PM50 °FClear.No wind54%30.26 "Hg10 mi
9:55 PM48 °FClear.No wind58%30.26 "Hg10 mi
9:35 PM50 °FClear.No wind58%30.26 "Hg10 mi
9:15 PM52 °FClear.No wind50%30.25 "Hg10 mi
8:55 PM54 °FClear.No wind44%30.25 "Hg10 mi
8:35 PM54 °FClear.No wind41%30.25 "Hg10 mi
8:15 PM55 °FClear.No wind38%30.25 "Hg10 mi
7:55 PM55 °FSunny.No wind38%30.24 "Hg10 mi
7:35 PM55 °FSunny.No wind38%30.25 "Hg10 mi
7:15 PM55 °FSunny.5 mph38%30.25 "Hg10 mi
6:55 PM57 °FSunny.No wind39%30.25 "Hg10 mi
6:35 PM59 °FSunny.6 mph36%30.25 "Hg10 mi
6:15 PM61 °FSunny.6 mph34%30.25 "Hg10 mi
5:55 PM61 °FSunny.5 mph29%30.26 "Hg10 mi
5:35 PM61 °FSunny.3 mph31%30.27 "Hg10 mi
5:15 PM61 °FSunny.5 mph29%30.27 "Hg10 mi
4:55 PM61 °FSunny.5 mph29%30.27 "Hg10 mi
4:35 PM63 °FSunny.7 mph30%30.27 "Hg10 mi
3:55 PM63 °FSunny.8 mph30%30.28 "Hg10 mi
3:35 PM63 °FSunny.8 mph30%30.29 "Hg10 mi
3:15 PM61 °FSunny.7 mph36%30.30 "Hg10 mi
2:55 PM61 °FSunny.7 mph34%30.30 "Hg10 mi
2:35 PM61 °FSunny.6 mph36%30.31 "Hg10 mi
2:15 PM61 °FSunny.7 mph36%30.31 "Hg10 mi
1:55 PM61 °FSunny.7 mph36%30.32 "Hg10 mi
1:35 PM59 °FSunny.6 mph39%30.32 "Hg10 mi
1:15 PM59 °FSunny.7 mph39%30.33 "Hg10 mi
12:55 PM57 °FSunny.8 mph41%30.33 "Hg10 mi
12:35 PM57 °FSunny.7 mph41%30.33 "Hg10 mi
12:15 PM57 °FSunny.7 mph41%30.34 "Hg10 mi
11:55 AM57 °FSunny.9 mph44%30.34 "Hg10 mi
11:35 AM55 °FSunny.7 mph47%30.35 "Hg10 mi
11:15 AM55 °FSunny.6 mph47%30.34 "Hg10 mi
10:55 AM55 °FSunny.7 mph47%30.34 "Hg10 mi
10:35 AM54 °FSunny.7 mph51%30.34 "Hg10 mi
10:15 AM54 °FSunny.8 mph51%30.35 "Hg10 mi
9:55 AM54 °FSunny.6 mph51%30.34 "Hg10 mi
9:35 AM52 °FSunny.9 mph54%30.34 "Hg10 mi
9:15 AM52 °FSunny.8 mph54%30.34 "Hg10 mi
8:55 AM52 °FSunny.10 mph54%30.34 "Hg10 mi
8:35 AM52 °FSunny.10 mph54%30.34 "Hg10 mi
8:15 AM52 °FSunny.9 mph54%30.34 "Hg10 mi
Weather by CustomWeather, © 2015

See weather overviewHow to use our weather pages